Regional Weather Roundup
Issued by NWS Albany, NY

Current Version | Previous Version | Text Only | Print | Product List | Glossary On
Versions: 1 2 3 4 5 6 7 8 9 10 11 12 13 14 15 16 17 18 19 20 21 22 23 24 25 26 27 28 29 30 31 32 33 34 35 36 37 38 39 40 41 42 43 44 45 46 47 48 49 50
000 ASUS41 KALY 041310 RWRALY NEW YORK STATE HOURLY WEATHER ROUNDUP NATIONAL WEATHER SERVICE ALBANY NY 800 AM EST THU MAR 04 2021 NOTE: "FAIR" INDICATES FEW OR NO CLOUDS BELOW 12,000 FEET WITH NO SIGNIFICANT WEATHER AND/OR NO OBSTRUCTIONS TO VISIBILITY. NYZ032-033-038>043-046>054-057>066-NYZ062>081-082-084-041400- EAST CITY SKY/WX TMP DP RH WIND PRES REMARKS ALBANY PTSUNNY 30 21 69 W15 29.84R WCI 19 GLENS FALLS CLOUDY 28 16 60 N15 29.84R WCI 16 POUGHKEEPSIE CLOUDY 39 24 55 NW7 29.81R WCI 34 NEWBURGH PTSUNNY 37 25 60 NW17G25 29.81R WCI 28 MONTGOMERY CLOUDY 36 22 56 NW16G24 29.81R WCI 26 WHITE PLAINS PTSUNNY 39 25 57 W15G22 29.79S WCI 31 ISLIP MOSUNNY 41 29 62 NW14 29.79S NEW YORK CITY PTSUNNY 42 27 55 W14 29.82S CENTRAL PARK PTSUNNY 41 27 57 W6 29.85R $$ NYZ005>009-017-018-044>046-055-056-041400- CENTRAL CITY SKY/WX TMP DP RH WIND PRES REMARKS FULTON LGT SNOW 26 17 68 N10G20 29.98R WCI 16 SYRACUSE FLURRIES 27 18 69 N13 29.97R WCI 16 ROME CLOUDY 26 16 65 NW13 29.93R WCI 15 ELMIRA CLOUDY 33 18 53 N8G20 29.93R WCI 26 BINGHAMTON LGT SNOW 27 22 81 N13G22 29.84R WCI 16 MONTICELLO FLURRIES 30 21 69 NW13 29.82R WCI 20 $$ NYZ026>034-041>043-087-041400- NORTH CITY SKY/WX TMP DP RH WIND PRES REMARKS WATERTOWN CLOUDY 22 13 68 N13 29.99R WCI 10 FORT DRUM NOT AVBL OGDENSBURG FAIR 18 7 62 NW15G22 29.97R WCI 3 MASSENA SUNNY 17 4 56 W9 29.98R WCI 6 SARANAC LAKE LGT SNOW 15 9 76 NW8 29.79R WCI 4 PLATTSBURGH CLOUDY 21 6 52 NW14G21 29.88R WCI 8 $$ NYZ001>004-010>016-019>021-085-041400- WEST CITY SKY/WX TMP DP RH WIND PRES REMARKS NIAGARA FALLS LGT SNOW 29 22 75 N16 30.04R WCI 17 BUFFALO LGT SNOW 30 24 78 N10 30.02R WCI 21 DUNKIRK CLOUDY 33 26 75 N10 30.03R WCI 25 JAMESTOWN LGT SNOW N/A N/A N/A MISG 29.96R WELLSVILLE LGT SNOW 26 24 92 MISG 29.90R VSB 1 ROCHESTER LGT SNOW 27 21 78 N16 30.02R WCI 15 PENN YAN LGT SNOW 28 22 78 N8 29.96R WCI 20 $$ KEY WCI = WIND CHILL INDEX VSB = VISIBILITY HX = HEAT INDEX $$

USA.gov is the U.S. government's official web portal to all federal, state and local government web resources and services.